This is the latest recevied weather packets stored in our database for station/object SQ9PDE-13. If no packets are shown the sender has not sent any weather packets the latest 10 day(s).
| Time | Temp. | Humidity | Pressure | Rain* | Wind** | Luminosity | Snow |
|---|---|---|---|---|---|---|---|
| 1787634381 | 13.89° C | 73% | 1022.1 hPa | - | - | - | - |
| 1787634081 | 13.89° C | 73% | 1022.1 hPa | - | - | - | - |
| 1787633780 | 13.33° C | 74% | 1022.2 hPa | - | - | - | - |
| 1787632879 | 13.89° C | 73% | 1022.1 hPa | - | - | - | - |
| 1787632578 | 13.89° C | 73% | 1022 hPa | - | - | - | - |
| 1787632472 | 13.33° C | 74% | 1022.1 hPa | - | - | - | - |
| 1787632083 | 13.33° C | 74% | 1022.1 hPa | - | - | - | - |
| 1787631783 | 13.33° C | 75% | 1022.2 hPa | - | - | - | - |
| 1787631482 | 12.22° C | 77% | 1022.2 hPa | - | - | - | - |
| 1787631182 | 12.22° C | 77% | 1022.2 hPa | - | - | - | - |
| 1787630881 | 12.22° C | 78% | 1022.3 hPa | - | - | - | - |
| 1787630635 | 12.22° C | 78% | 1022.3 hPa | - | - | - | - |
| 1787630580 | 12.22° C | 78% | 1022.3 hPa | - | - | - | - |
| 1787630280 | 12.22° C | 78% | 1022.3 hPa | - | - | - | - |
| 1787629979 | 12.22° C | 78% | 1022.4 hPa | - | - | - | - |
| 1787629679 | 11.67° C | 79% | 1022.5 hPa | - | - | - | - |
| 1787629379 | 11.67° C | 79% | 1022.5 hPa | - | - | - | - |
| 1787629146 | 11.67° C | 78% | 1022.3 hPa | - | - | - | - |
| 1787629078 | 11.67° C | 78% | 1022.5 hPa | - | - | - | - |
| 1787628777 | 11.67° C | 78% | 1022.4 hPa | - | - | - | - |
| 1787628477 | 11.67° C | 78% | 1022.4 hPa | - | - | - | - |
| 1787628176 | 11.67° C | 78% | 1022.3 hPa | - | - | - | - |
| 1787627876 | 11.67° C | 77% | 1022.2 hPa | - | - | - | - |
| 1787627666 | 12.22° C | 77% | 1022.2 hPa | - | - | - | - |
| 1787627575 | 12.22° C | 77% | 1022.2 hPa | - | - | - | - |
* Rain since midnight (hover to see other rain measurements)
** Current wind speed in m/s (hover to see current wind gust speed)